Location: Pardubice
(50.0330°N, 15.7830°E)
Time: 10:47:13
(UTC+02:00)

Altair - Visible Passes

Search period start: 07 October 2024 00:00
Search period end: 17 October 2024 00:00
Orbit: 1501 x 1682 km, 47.2° (Epoch: 06 October)

Date Brightness Start Highest point End Pass type
(mag) Time Alt. Az. Time Alt. Az. Time Alt. Az.
07 Oct9.901:03:22E01:03:22E00:39:25Wvisible
07 Oct 8.7 03:01:28 27° SE 03:01:28 27° SE 03:05:34 10° SE visible
07 Oct 8.5 04:59:35 24° SW 04:59:35 24° SW 05:06:38 10° S visible
07 Oct 8.2 20:10:49 10° S 20:18:23 28° SE 20:20:01 27° ESE visible
07 Oct 8.1 22:12:27 10° SW 22:18:05 40° SW 22:18:05 40° SW visible
08 Oct 9.2 02:38:42 16° SE 02:38:42 16° SE 02:40:25 10° SE visible
08 Oct 8.6 04:36:49 23° SSW 04:36:49 23° SSW 04:41:50 10° S visible
08 Oct 8.3 19:46:02 10° S 19:53:19 26° SE 19:56:39 21° ESE visible
08 Oct 7.7 21:47:21 10° SW 21:54:41 51° SSW 21:54:41 51° SSW visible
08 Oct 9.3 23:51:17 10° W 23:52:44 16° W 23:52:44 16° W visible
09 Oct 8.9 04:14:06 19° S 04:14:06 19° S 04:17:01 10° S visible
09 Oct 8.4 19:21:18 10° S 19:28:15 24° SE 19:33:09 16° E visible
09 Oct 7.5 21:22:16 10° SW 21:31:11 56° SSE 21:31:11 56° SSE visible
09 Oct 8.9 23:26:06 10° W 23:29:13 24° WSW 23:29:13 24° WSW visible
10 Oct 9.3 03:51:22 12° S 03:51:22 12° S 03:52:08 10° SSE visible
10 Oct 8.6 18:56:36 10° S 19:03:12 22° SE 19:09:32 11° E visible
10 Oct 7.5 20:57:12 10° SW 21:06:14 54° SSE 21:07:35 50° SE visible
10 Oct 8.5 23:00:55 10° W 23:05:37 34° WSW 23:05:37 34° WSW visible
11 Oct 7.6 20:32:09 10° SW 20:41:05 51° SSE 20:43:53 41° ESE visible
11 Oct 8.0 22:35:44 10° WSW 22:41:54 46° WSW 22:41:54 46° WSW visible
12 Oct 7.7 20:07:07 10° SW 20:15:56 49° SSE 20:20:08 32° E visible
12 Oct 7.7 22:10:34 10° WSW 22:18:08 61° SW 22:18:08 61° SW visible
13 Oct 9.4 00:15:00 10° W 00:16:10 15° W 00:16:10 15° W visible
13 Oct 7.8 19:42:06 10° SW 19:50:48 46° SSE 19:56:18 24° E visible
13 Oct 7.4 21:45:24 10° WSW 21:54:19 73° SSW 21:54:19 73° SSW visible
13 Oct 9.1 23:49:48 10° W 23:52:20 21° W 23:52:20 21° W visible
14 Oct 7.9 19:17:06 10° SSW 19:25:40 43° SE 19:32:26 18° E visible
14 Oct 7.3 21:20:14 10° WSW 21:29:36 73° S 21:30:27 69° SE visible
14 Oct 8.7 23:24:36 10° W 23:28:27 28° W 23:28:27 28° W visible
15 Oct 8.0 18:52:08 10° SSW 19:00:34 41° SE 19:08:31 13° E visible
15 Oct 7.4 20:55:05 10° WSW 21:04:25 71° SSE 21:06:32 57° ESE visible
15 Oct 8.4 22:59:25 10° W 23:04:32 37° W 23:04:32 37° W visible
16 Oct 8.1 18:27:10 10° SSW 18:35:27 38° SE 18:44:00 10° E visible
16 Oct 7.4 20:29:56 10° WSW 20:39:13 70° SSE 20:42:35 45° E visible
16 Oct 8.0 22:34:13 10° W 22:40:36 48° W 22:40:36 48° W visible
